Location: Dötzum
(52.0808°N, 9.8063°E)
Time: 05:00:47
(UTC+00:00)

Thor Agena Rocket - Pass Details

Date: 27 May 2022
Orbit: 760 x 807 km, 99.0° (Epoch: 26 June)

Event Time Altitude Azimuth Distance (km) Brightness Sun altitude
Rises 01:12:36 0° 13° (NNE) 3,322 8.5 -12.5°
Reaches altitude 10° 01:14:58 10° 9° (N) 2,392 7.3 -12.3°
Maximum altitude 01:20:07 56° 293° (WNW) 959 4.0 -11.9°
Enters shadow 01:24:20 15° 219° (SW) 2,029 5.0 -11.6°
